Location: Cantaing
(50.1487°N, 3.1675°E)
Time: 09:09:25
(UTC+00:00)

BREEZE-M DEB (TANK) - Pass Details

Date: 14 January 2026
Orbit: 325 x 14637 km, 49.5° (Epoch: 17 February)

Event Time Altitude Azimuth Distance (km) Brightness Sun altitude
Exits shadow 05:27:04 69° 134° (SE) 435 2.9 -20.8°
Drops below altitude 10° 05:30:43 10° 100° (E) 2,122 7.5 -20.2°
Sets 05:34:26 0° 99° (E) 3,986 9.4 -19.6°
